Regional Weather Roundup
Issued by NWS State College, PA

Home | Current Version | Previous Version | Graphics & Text | Print | Product List | Glossary On
Versions: 1 2 3 4 5 6 7 8 9 10 11 12 13 14 15 16 17 18 19 20 21 22 23 24 25 26 27 28 29 30 31 32 33 34 35 36 37 38 39 40 41 42 43 44 45 46 47 48 49 50
000
ASUS41 KCTP 012210
RWRCTP

REGIONAL WEATHER ROUNDUP
NATIONAL WEATHER SERVICE STATE COLLEGE PA
600 PM EDT SUN MAY 01 2016

Note: "fair" indicates few or no clouds below 12,000 feet with no
significant weather and/or obstructions to visibility.

* = STATION THAT DOES NOT REPORT PRECIPITATION /E.G. RAIN...SNOW...ETC/
    THUNDER OR FOG.

PAZ002>004-007>009-013>016-020>023-029>032-012300-
WESTERN PENNSYLVANIA

CITY           SKY/WX    TMP DP  RH WIND       PRES   REMARKS
ERIE           CLOUDY    49  46  90 N9        29.97R FOG
MEADVILLE        N/A    N/A N/A N/A MISG      29.93R
FRANKLIN*      CLOUDY    70  54  56 W8        29.92S
NEW CASTLE     FAIR      72  56  57 SW5       29.90F
BEAVER COUNTY  NOT AVBL
BUTLER*        CLOUDY    70  57  64 SW9       29.92F
PITTSBURGH INT TSTM      66  59  78 SW7       29.92R
PITTSBURGH     CLOUDY    69  56  62 S8        29.92R
INDIANA*       MOSUNNY   68  61  77 SW5       29.95F
LATROBE        LGT RAIN  66  64  94 SW6       29.94R
WASHINGTON CO* CLOUDY    66  61  82 N6        29.93S
$$

PAZ004>006-010>012-017>019-024>028-033>037-041-042-045-046-049>053-012300-
CENTRAL PENNSYLVANIA

CITY           SKY/WX    TMP DP  RH WIND       PRES   REMARKS
BRADFORD       PTSUNNY   61  55  81 S6        29.92S
DUBOIS         MOSUNNY   60  57  89 SE9       29.92R
CLEARFIELD     LGT RAIN  56  53  90 E5        29.95F
JOHNSTOWN      CLOUDY    62  54  74 E6        29.96R
ALTOONA        CLOUDY    55  53  93 SE6       29.98S
STATE COLLEGE  CLOUDY    50  48  93 CALM      30.00R
WILLIAMSPORT   CLOUDY    50  45  83 E6        30.01F
SELINSGROVE    CLOUDY    50  46  86 E7        30.03F
FT INDIANTOWN  CLOUDY    48  48 100 NE6       30.04S FOG
CAPITAL CITY   CLOUDY    53  50  89 E7        30.04R FOG
HARRISBURG     DRIZZLE   52  50  93 SE7       30.03R FOG
YORK           CLOUDY    53  51  93 SE3       30.02F FOG
$$

PAZ038>040-043-044-047-048-054-055-060>062-067>071-012300-
EASTERN PENNSYLVANIA

CITY           SKY/WX    TMP DP  RH WIND       PRES   REMARKS
SCRANTON       CLOUDY    49  43  80 VRB3      30.04R
MOUNT POCONO   FOG       43  42  97 SE10      30.04S VSB 1/4
ALLENTOWN      CLOUDY    52  46  82 E5        30.07S FOG
QUAKERTOWN*    CLOUDY    48  48 100 SE6       30.07S
READING        CLOUDY    51  48  89 CALM      30.05S
LANCASTER      CLOUDY    51  50  96 E6        30.04R FOG
COATESVILLE    CLOUDY    50  50 100 VRB6      30.06R FOG
POTTSTOWN      CLOUDY    50  49  96 E5        30.07F FOG
BLUE BELL      CLOUDY    50  48  93 E3        30.06F
DOYLESTOWN     CLOUDY    48  47  96 CALM      30.06F
WILLOW GROVE   NOT AVBL
NORTH PHILA    CLOUDY    52  49  89 E6        30.08F
PHILADELPHIA   LGT RAIN  53  49  86 NE6       30.07S FOG
$$




USA.gov is the U.S. government's official web portal to all federal, state and local government web resources and services.